Regional Weather Roundup
Issued by NWS

Home | Current Version | Previous Version | Graphics & Text | Print | Product List | Glossary On
Versions: 1 2 3 4 5 6 7 8 9 10 11 12 13 14 15 16 17 18 19 20 21 22 23 24 25 26 27 28 29 30 31 32 33 34 35 36 37 38 39 40 41 42 43 44 45 46 47 48 49 50
000
ASUS43 KDTX 230510
RWRMI
MICHIGAN HOURLY REGIONAL WEATHER ROUNDUP
NATIONAL WEATHER SERVICE DETROIT/PONTIAC MI
100 AM EDT WED JUL 23 2014

NOTE: "FAIR" INDICATES FEW OR NO CLOUDS BELOW 12,000 FEET WITH NO
SIGNIFICANT WEATHER AND/OR OBSTRUCTION TO VISIBILITY.

MIZ047>049-052>055-059>063-066>070-074>076-081>083-230600-
SOUTHEAST LOWER MICHIGAN

CITY           SKY/WX    TMP DP  RH WIND       PRES   REMARKS
ADRIAN         CLOUDY    77  67  71 W5        29.98S
ALMA           CLOUDY    75  66  75 N10G17    29.96R
ANN ARBOR      CLOUDY    78  66  66 SW6       29.96S
BAD AXE        RAIN      77  69  76 NW15G23   29.92S
DETROIT CITY   CLOUDY    84  66  54 SW10      29.94S
DETROIT        CLOUDY    79  67  66 S9        29.96S
FLINT          CLOUDY    80  67  64 SW8       29.93S
GROSSE ILE     CLOUDY    81  66  61 SW6       29.94S
HILLSDALE      CLOUDY    79  69  72 W7        30.00R
HOWELL         CLOUDY    77  67  69 W5        29.96R

CITY           SKY/WX    TMP DP  RH WIND       PRES   REMARKS
JACKSON        CLOUDY    79  68  69 SW13G18   29.95F
LAMBERTVILLE   CLOUDY    81  64  57 SW7       29.98S
LANSING        CLOUDY    79  69  71 W12       29.96R
LAPEER         NOT AVBL
MASON          CLOUDY    78  68  70 SW6       29.96R
MONROE         CLOUDY    79  66  65 SW8       29.95S
MT. CLEMENS    TSTM      81  69  68 SW12      29.92F
PONTIAC        MOCLDY    80  67  64 SW7       29.94F
PORT HOPE        N/A     73  67  81 VRB6      29.91R
PORT HURON     PTCLDY    75  68  78 S5        29.92F
TRI CITIES     CLOUDY    75  69  81 N15       29.95R
YPSILANTI      CLOUDY    82  66  58 SW8       29.96R
$$
MIZ043>046-050>051-056>058-064>065-071>073-077>080-230600-
SOUTHWEST LOWER MICHIGAN

CITY           SKY/WX    TMP DP  RH WIND       PRES   REMARKS
BATTLE CREEK   CLOUDY    77  61  57 W18G24    29.99R
BENTON HARBOR  TSTM      72  65  78 NW13G21   29.99R
BIG RAPIDS     CLOUDY    67  60  78 N9G17     30.01R
COLDWATER      MOCLDY    78  70  77 W6        29.99R
HOLLAND        CLOUDY    70  66  87 W6        29.99R
GRAND RAPIDS   CLOUDY    71  66  84 W10       29.98R
KALAMAZOO      TSTM      72  62  71 W20G36    30.01F
MARSHALL       CLOUDY    77  69  75 SW7       29.96F
MUSKEGON       CLOUDY    73  68  84 N12       29.99R
$$
MIZ016>042-230600-
NORTHERN LOWER MICHIGAN

CITY           SKY/WX    TMP DP  RH WIND       PRES   REMARKS
ALPENA         MOCLDY    64  59  83 VRB7      29.95R
BEAVER ISLAND  CLOUDY    60  57  89 N5        30.04R
BELLAIRE       CLOUDY    63  56  80 N9        30.02R
CADILLAC       CLOUDY    60  57  90 N12G24    30.02R
CHARLEVOIX     CLOUDY    62  58  87 N9        30.06R
FRANKFORT      CLEAR     63  55  76 N7        30.06R
GAYLORD        CLOUDY    60  56  86 N8G18     30.01R
GRAYLING       CLOUDY    61  59  93 NW12G18   30.01R
HARBOR SPRINGS CLOUDY    62  56  82 CALM      30.02R
HOUGHTON LAKE  CLOUDY    61  58  90 N12G17    30.00S
MANISTEE       PTCLDY    64  54  68 N12G20    30.05R
OSCODA         CLOUDY    72  62  71 NW13G21   29.92R
PELLSTON       MOCLDY    60  56  86 NW15G22   30.01R
TRAVERSE CITY  CLOUDY    64  56  75 N9        30.03R
$$
MIZ007>008-015-230600-
EASTERN UPPER MICHIGAN

CITY           SKY/WX    TMP DP  RH WIND       PRES   REMARKS
KINROSS        CLOUDY    54  54 100 NW14G22   29.99R
MACKINAC ISLAN MOCLDY    57  56  94 NW14G23   29.99R
NEWBERRY       CLOUDY    55  52  89 NW13G18   30.03R
S. S. MARIE    PTCLDY    54  52  93 NW10      29.98R
$$
MIZ004>006-011>014-085-230600-
CENTRAL UPPER MICHIGAN

CITY           SKY/WX    TMP DP  RH WIND       PRES   REMARKS
MANISTIQUE     CLEAR     57  53  85 N8G17     30.05R
ESCANABA       CLEAR     61  52  72 N5        30.07R
MENOMINEE      CLEAR     63  54  72 N8        30.07R
SAWYER-GWINN   CLEAR     57  53  85 N8        30.10R
$$
MIZ001>003-009>011-084-230600-
WESTERN UPPER MICHIGAN

CITY           SKY/WX    TMP DP  RH WIND       PRES   REMARKS
IRON MOUNTAIN  CLEAR     58  55  90 NW7       30.10R
HOUGHTON       MOCLDY    57  53  86 N6        30.12R
COPPER HARBOR    N/A     55  51  86 N13       30.11R
$$

ABBREVIATIONS USED IN REMARKS
   TC - TEMPERATURE IN CELSIUS
  WCI - WIND CHILL INDEX
   HX - HEAT INDEX
  VSB - VISIBILITY



USA.gov is the U.S. government's official web portal to all federal, state and local government web resources and services.